This is the latest recevied weather packets stored in our database for station/object KK6LVQ-13. If no packets are shown the sender has not sent any weather packets the latest 10 day(s).
| Time | Temp. | Humidity | Pressure | Rain* | Wind** | Luminosity | Snow |
|---|---|---|---|---|---|---|---|
| 1778107392 | 21.11° C | 66% | 1022.7 hPa | 0 mm | - | 614 W/m² | - |
| 1778107089 | 21.11° C | 66% | 1022.7 hPa | 0 mm | - | 625 W/m² | - |
| 1778106784 | 21.67° C | 66% | 1022.9 hPa | 0 mm | - | 636 W/m² | - |
| 1778106481 | 21.67° C | 65% | 1022.8 hPa | 0 mm | - | 647 W/m² | - |
| 1778106177 | 21.67° C | 65% | 1022.9 hPa | 0 mm | - | 657 W/m² | - |
| 1778105875 | 21.67° C | 64% | 1023.1 hPa | 0 mm | - | 668 W/m² | - |
| 1778105572 | 21.67° C | 64% | 1022.9 hPa | 0 mm | - | 676 W/m² | - |
| 1778105269 | 22.22° C | 63% | 1022.9 hPa | 0 mm | - | 686 W/m² | - |
| 1778104958 | 22.22° C | 63% | 1023 hPa | 0 mm | - | 694 W/m² | - |
| 1778104656 | 22.78° C | 62% | 1023.2 hPa | 0 mm | - | 702 W/m² | - |
| 1778104351 | 22.78° C | 62% | 1023.2 hPa | 0 mm | - | 712 W/m² | - |
| 1778104048 | 22.78° C | 63% | 1023 hPa | 0 mm | - | 722 W/m² | - |
| 1778103745 | 22.22° C | 63% | 1023.3 hPa | 0 mm | - | 730 W/m² | - |
| 1778103443 | 22.78° C | 62% | 1023.3 hPa | 0 mm | - | 736 W/m² | - |
| 1778103140 | 22.78° C | 62% | 1023.2 hPa | 0 mm | - | 743 W/m² | - |
| 1778102837 | 22.78° C | 60% | 1023.5 hPa | 0 mm | - | 752 W/m² | - |
| 1778102533 | 22.78° C | 62% | 1023.6 hPa | 0 mm | - | 768 W/m² | - |
| 1778102228 | 23.33° C | 62% | 1023.4 hPa | 0 mm | - | 761 W/m² | - |
| 1778101925 | 22.78° C | 62% | 1023.5 hPa | 0 mm | - | 766 W/m² | - |
| 1778101622 | 22.22° C | 60% | 1023.6 hPa | 0 mm | - | 771 W/m² | - |
| 1778101319 | 22.78° C | 61% | 1023.7 hPa | 0 mm | - | 776 W/m² | - |
| 1778101016 | 22.78° C | 63% | 1023.5 hPa | 0 mm | - | 782 W/m² | - |
| 1778100711 | 22.22° C | 62% | 1023.7 hPa | 0 mm | - | 797 W/m² | - |
| 1778100409 | 22.78° C | 61% | 1023.7 hPa | 0 mm | - | 796 W/m² | - |
| 1778100105 | 22.78° C | 62% | 1023.7 hPa | 0 mm | - | 794 W/m² | - |
* Rain latest hour (hover to see other rain measurements)
** Current wind speed in m/s (hover to see current wind gust speed)